Weather History for Nome, AK

Change the Weather History Date:

Friday, August 16, 2013

  Actual Average Record
Temperature  
Mean Temperature 57 °F 50 °F  
Max Temperature 64 °F 56 °F 68 °F (1950)
Min Temperature 50 °F 45 °F 24 °F (1929)
Degree Days  
Heating Degree Days 8 15  
Month to date heating degree days 139 228  
Since 1 June heating degree days 1022 1144  
Since 1 July heating degree days 546 628  
Cooling Degree Days 0    
Month to date cooling degree days 0  
Year to date cooling degree days 7  
Since 1 June cooling degree days 7  
Growing Degree Days 8 (Base 50)    
Moisture  
Dew Point 50 °F    
Average Humidity 0    
Maximum Humidity 0    
Minimum Humidity 0    
Precipitation  
Precipitation 0.00 in 0.10 in 1.18 in (1994)
Month to date precipitation 3.03 1.69  
Year to date precipitation 11.93 8.92  
Snow  
Snow 0.00 in 0.00 in 0.00 in (2014)
Month to date snowfall 0.0 0.0  
Since 1 June snowfall 0.1 0.3  
Since 1 July snowfall 0.0 0.0  
Snow Depth 0.00 in    
Sea Level Pressure  
Sea Level Pressure 29.73 in    
Wind  
Wind Speed 5 mph (West)    
Max Wind Speed 13 mph    
Max Gust Speed 15 mph    
Visibility 10 miles    
Events      
T = Trace of Precipitation, MM = Missing Value Source: NWS Daily Summary

Daily Weather History Graph

Daily Weather History Graph

Search for Another Location

Airport:

Trip Planner

Search our weather history database for the weather conditions in past years. The results will help you decide how hot, cold, wet, or windy it might be!

Date:

Astronomy

Aug. 16, 2013 Rise Set
Actual Time 6:55 AM AKDT 11:14 PM AKDT
Civil Twilight 5:49 AM AKDT 12:18 AM AKDT
Nautical Twilight 3:38 AM AKDT 2:36 AM AKDT
Astronomical Twilight Sun does not rise Sun does not rise
Moon 8:37 PM AKDT (8/16) 1:16 AM AKDT (8/16)
Length of Visible Light 18h 29m
Length of Day
16h 19m
Waxing Gibbous, 76% of the Moon is Illuminated
Aug 16
Waxing Gibbous
Aug 20
Full
Aug 28
Last Quarter
Sep 5
New
Sep 12
First Quarter

Hourly Weather History & Observations

Time (AKDT) Temp. Dew Point Humidity Pressure Visibility Wind Dir Wind Speed Gust Speed Precip Events Conditions
12:53 AM 55.9 °F 54.0 °F 93% 29.76 in 10.0 mi Calm Calm - N/A   Overcast
1:53 AM 55.9 °F 53.1 °F 90% 29.76 in 10.0 mi Calm Calm - N/A   Overcast
2:53 AM 55.9 °F 52.0 °F 87% 29.76 in 10.0 mi Calm Calm - N/A   Overcast
3:53 AM 57.0 °F 50.0 °F 77% 29.76 in 10.0 mi Calm Calm - N/A   Overcast
4:53 AM 55.9 °F 48.9 °F 77% 29.75 in 10.0 mi Calm Calm - N/A   Overcast
5:53 AM 55.0 °F 48.9 °F 80% 29.75 in 10.0 mi NNW 3.5 mph - N/A   Overcast
6:53 AM 54.0 °F 48.9 °F 83% 29.75 in 10.0 mi NNW 4.6 mph - N/A   Overcast
7:53 AM 54.0 °F 48.9 °F 83% 29.75 in 10.0 mi North 5.8 mph - N/A   Overcast
8:53 AM 55.9 °F 48.0 °F 75% 29.75 in 10.0 mi Calm Calm - N/A   Mostly Cloudy
9:53 AM 57.9 °F 48.9 °F 72% 29.75 in 10.0 mi Calm Calm - N/A   Mostly Cloudy
10:53 AM 60.1 °F 48.0 °F 64% 29.74 in 10.0 mi North 8.1 mph - N/A   Scattered Clouds
11:53 AM 61.0 °F 48.9 °F 64% 29.74 in 10.0 mi NNW 4.6 mph - N/A   Scattered Clouds
12:53 PM 62.1 °F 50.0 °F 65% 29.74 in 10.0 mi Variable 6.9 mph - N/A   Mostly Cloudy
1:53 PM 60.1 °F 52.0 °F 75% 29.73 in 10.0 mi SW 9.2 mph - N/A   Mostly Cloudy
2:53 PM 61.0 °F 51.1 °F 70% 29.74 in 10.0 mi WSW 10.4 mph - N/A   Mostly Cloudy
3:53 PM 61.0 °F 51.1 °F 70% 29.73 in 10.0 mi SW 10.4 mph - N/A   Mostly Cloudy
4:53 PM 61.0 °F 50.0 °F 67% 29.72 in 10.0 mi SW 9.2 mph - N/A   Scattered Clouds
5:53 PM 62.1 °F 51.1 °F 67% 29.72 in 10.0 mi SSW 10.4 mph - N/A   Scattered Clouds
6:53 PM 63.0 °F 46.9 °F 56% 29.72 in 10.0 mi South 4.6 mph - N/A   Scattered Clouds
7:53 PM 62.1 °F 48.0 °F 60% 29.69 in 10.0 mi SSE 3.5 mph - N/A   Mostly Cloudy
8:53 PM 63.0 °F 48.0 °F 58% 29.70 in 10.0 mi South 3.5 mph - N/A   Scattered Clouds
9:53 PM 62.1 °F 48.9 °F 62% 29.70 in 10.0 mi Calm Calm - N/A   Scattered Clouds
10:53 PM 57.9 °F 48.9 °F 72% 29.69 in 10.0 mi North 3.5 mph - N/A   Scattered Clouds
11:53 PM 52.0 °F 46.9 °F 83% 29.69 in 10.0 mi North 4.6 mph - N/A   Scattered Clouds